When you browse on this site, cookies collect data to enhance your experience and personalize the content and advertising you see.
Visit our Privacy Policy to learn more. By continuing to use the site, you agree to this use of cookies and data.
EN

Hourly Weather Puerto Iguazu

Today, 11 August, Tuesday

Time Temperature Precipitation Wind Pressure Humidity
00:00 +21°C° 0 mm 1 mps 744 mmHg 61%
01:00 +20°C° 0 mm 1 mps 744 mmHg 62%
02:00 +19°C° 0 mm 1 mps 744 mmHg 64%
03:00 +19°C° 0 mm 1 mps 744 mmHg 64%
04:00 +19°C° 0 mm 1 mps 744 mmHg 64%
05:00 +19°C° 0 mm 1 mps 744 mmHg 64%
06:00 +20°C° 0 mm 1 mps 744 mmHg 61%
07:00 +21°C° 0 mm 1 mps 745 mmHg 59%
08:00 +22°C° 0 mm 1 mps 745 mmHg 56%
09:00 +24°C° 0 mm 1 mps 745 mmHg 49%
10:00 +27°C° 0 mm 1 mps 745 mmHg 42%
11:00 +30°C° 0 mm 1 mps 745 mmHg 35%
12:00 +30°C° 0 mm 1 mps 745 mmHg 33%
13:00 +31°C° 0 mm 1 mps 744 mmHg 31%
14:00 +32°C° 0 mm 1 mps 743 mmHg 29%
15:00 +30°C° 0 mm 1 mps 743 mmHg 36%
16:00 +28°C° 0 mm 1 mps 743 mmHg 43%
17:00 +26°C° 0 mm 2 mps 743 mmHg 50%
18:00 +25°C° 0 mm 2 mps 743 mmHg 57%
19:00 +23°C° 0 mm 2 mps 743 mmHg 64%
20:00 +21°C° 0 mm 2 mps 744 mmHg 71%
21:00 +20°C° 0 mm 2 mps 744 mmHg 75%
22:00 +19°C° 0 mm 2 mps 743 mmHg 79%
23:00 +20°C° 0 mm 1 mps 743 mmHg 83%

Tomorrow, 12 August, Wednesday

Time Temperature Precipitation Wind Pressure Humidity
00:00 +19°C° 0 mm 1 mps 743 mmHg 84%
01:00 +18°C° 0 mm 2 mps 742 mmHg 84%
02:00 +17°C° 0 mm 2 mps 742 mmHg 85%
03:00 +18°C° 0 mm 1 mps 742 mmHg 84%
04:00 +18°C° 0 mm 1 mps 742 mmHg 83%
05:00 +16°C° 0 mm 1 mps 742 mmHg 82%
06:00 +16°C° 0 mm 1 mps 742 mmHg 81%
07:00 +16°C° 0 mm 1 mps 742 mmHg 79%
08:00 +16°C° 0 mm 1 mps 743 mmHg 77%
09:00 +18°C° 0.2 mm 1 mps 743 mmHg 78%
10:00 +19°C° 0.2 mm 1 mps 743 mmHg 78%
11:00 +19°C° 0.2 mm 1 mps 742 mmHg 78%
12:00 +19°C° 4 mm 1 mps 742 mmHg 84%
13:00 +19°C° 4 mm 1 mps 742 mmHg 89%
14:00 +18°C° 4 mm 1 mps 741 mmHg 94%
15:00 +19°C° 1 mm 1 mps 741 mmHg 94%
16:00 +19°C° 1 mm 1 mps 741 mmHg 94%
17:00 +17°C° 1 mm 0 mps 741 mmHg 95%
18:00 +17°C° 0.3 mm 0 mps 741 mmHg 95%
19:00 +18°C° 0.3 mm 1 mps 741 mmHg 96%
20:00 +18°C° 0.3 mm 1 mps 741 mmHg 97%
21:00 +18°C° 0.1 mm 1 mps 742 mmHg 97%
22:00 +18°C° 0.1 mm 1 mps 742 mmHg 97%
23:00 +16°C° 0.1 mm 0 mps 742 mmHg 97%

Day after tomorrow, 13 August, Thursday

Time Temperature Precipitation Wind Pressure Humidity
00:00 +16°C° 0 mm 0 mps 742 mmHg 96%
01:00 +16°C° 0 mm 0 mps 742 mmHg 96%
02:00 +16°C° 0 mm 0 mps 741 mmHg 96%
03:00 +16°C° 0 mm 0 mps 741 mmHg 97%
04:00 +16°C° 0 mm 0 mps 741 mmHg 97%
05:00 +15°C° 0 mm 0 mps 741 mmHg 98%
06:00 +16°C° 0.2 mm 0 mps 742 mmHg 97%
07:00 +17°C° 0.2 mm 0 mps 742 mmHg 95%
08:00 +17°C° 0.2 mm 0 mps 742 mmHg 94%
09:00 +18°C° 0.4 mm 0 mps 743 mmHg 92%
10:00 +19°C° 0.4 mm 0 mps 743 mmHg 90%
11:00 +20°C° 0.4 mm 0 mps 743 mmHg 88%
12:00 +20°C° 0.8 mm 0 mps 742 mmHg 87%
13:00 +20°C° 0.8 mm 0 mps 742 mmHg 87%
14:00 +23°C° 0.8 mm 1 mps 741 mmHg 86%
15:00 +22°C° 0.7 mm 1 mps 741 mmHg 89%
16:00 +20°C° 0.7 mm 0 mps 741 mmHg 92%
17:00 +19°C° 0.7 mm 0 mps 741 mmHg 94%
18:00 +19°C° 0.2 mm 0 mps 741 mmHg 95%
19:00 +18°C° 0.2 mm 0 mps 741 mmHg 96%
20:00 +20°C° 0.2 mm 1 mps 742 mmHg 97%
21:00 +20°C° 0 mm 1 mps 742 mmHg 97%
22:00 +20°C° 0 mm 1 mps 742 mmHg 97%
23:00 +20°C° 0 mm 1 mps 742 mmHg 97%

14 August, Friday

Time Temperature Precipitation Wind Pressure Humidity
00:00 +19°C° 0 mm 1 mps 741 mmHg 97%
01:00 +19°C° 0 mm 1 mps 741 mmHg 98%
02:00 +18°C° 0 mm 1 mps 741 mmHg 98%
03:00 +18°C° 0 mm 1 mps 741 mmHg 98%
04:00 +18°C° 0 mm 1 mps 741 mmHg 98%
05:00 +18°C° 0 mm 1 mps 740 mmHg 97%
06:00 +19°C° 0.1 mm 1 mps 741 mmHg 96%
07:00 +20°C° 0.1 mm 1 mps 741 mmHg 94%
08:00 +21°C° 0.1 mm 1 mps 741 mmHg 92%
09:00 +22°C° 0.9 mm 1 mps 741 mmHg 90%
10:00 +23°C° 0.9 mm 1 mps 741 mmHg 87%
11:00 +24°C° 0.9 mm 2 mps 741 mmHg 84%
12:00 +25°C° 0.4 mm 1 mps 740 mmHg 78%
13:00 +26°C° 0.4 mm 1 mps 740 mmHg 71%
14:00 +27°C° 0.4 mm 1 mps 739 mmHg 65%
15:00 +26°C° 0.4 mm 1 mps 739 mmHg 71%
16:00 +25°C° 0.4 mm 1 mps 739 mmHg 77%
17:00 +22°C° 0.4 mm 0 mps 738 mmHg 84%
18:00 +23°C° 1.2 mm 1 mps 739 mmHg 88%
19:00 +22°C° 1.2 mm 1 mps 739 mmHg 92%
20:00 +21°C° 1.2 mm 2 mps 739 mmHg 96%
21:00 +21°C° 1.6 mm 1 mps 739 mmHg 96%
22:00 +21°C° 1.6 mm 1 mps 740 mmHg 97%
23:00 +20°C° 1.6 mm 1 mps 740 mmHg 98%

15 August, Saturday

Time Temperature Precipitation Wind Pressure Humidity
00:00 +20°C° 0.9 mm 1 mps 740 mmHg 98%
01:00 +20°C° 0.9 mm 1 mps 740 mmHg 98%
02:00 +20°C° 0.9 mm 1 mps 740 mmHg 98%
03:00 +18°C° 1 mm 0 mps 740 mmHg 98%
04:00 +18°C° 1 mm 0 mps 740 mmHg 98%
05:00 +18°C° 1 mm 0 mps 741 mmHg 98%
06:00 +20°C° 0.7 mm 1 mps 741 mmHg 98%
07:00 +21°C° 0.7 mm 1 mps 741 mmHg 97%
08:00 +20°C° 0.7 mm 2 mps 741 mmHg 97%
09:00 +20°C° 0.1 mm 2 mps 741 mmHg 94%
10:00 +21°C° 0.1 mm 2 mps 741 mmHg 91%
11:00 +23°C° 0.1 mm 2 mps 742 mmHg 88%
12:00 +24°C° 0.1 mm 2 mps 741 mmHg 84%
13:00 +25°C° 0.1 mm 1 mps 741 mmHg 79%
14:00 +26°C° 0.1 mm 1 mps 740 mmHg 75%
15:00 +24°C° 0.5 mm 2 mps 741 mmHg 82%
16:00 +21°C° 0.5 mm 2 mps 741 mmHg 88%
17:00 +19°C° 0.5 mm 2 mps 741 mmHg 95%
18:00 +19°C° 0.3 mm 2 mps 742 mmHg 95%
19:00 +19°C° 0.3 mm 2 mps 743 mmHg 95%
20:00 +18°C° 0.3 mm 2 mps 743 mmHg 94%
21:00 +18°C° 0 mm 2 mps 743 mmHg 94%
22:00 +17°C° 0 mm 3 mps 744 mmHg 93%
23:00 +16°C° 0 mm 3 mps 744 mmHg 93%

16 August, Sunday

Time Temperature Precipitation Wind Pressure Humidity
00:00 +16°C° 0 mm 2 mps 744 mmHg 93%
01:00 +15°C° 0 mm 2 mps 744 mmHg 94%
02:00 +14°C° 0 mm 2 mps 744 mmHg 95%
03:00 +14°C° 0 mm 2 mps 744 mmHg 95%
04:00 +13°C° 0 mm 2 mps 744 mmHg 95%
05:00 +12°C° 0 mm 2 mps 743 mmHg 96%
06:00 +13°C° 0 mm 2 mps 744 mmHg 94%
07:00 +14°C° 0 mm 2 mps 744 mmHg 91%
08:00 +14°C° 0 mm 2 mps 744 mmHg 89%
09:00 +17°C° 0 mm 2 mps 743 mmHg 80%
10:00 +21°C° 0 mm 1 mps 743 mmHg 70%
11:00 +23°C° 0 mm 1 mps 743 mmHg 61%
12:00 +25°C° 0 mm 1 mps 742 mmHg 58%
13:00 +26°C° 0 mm 1 mps 742 mmHg 55%
14:00 +27°C° 0 mm 1 mps 741 mmHg 52%
15:00 +25°C° 0 mm 1 mps 741 mmHg 59%
16:00 +24°C° 0 mm 1 mps 741 mmHg 65%
17:00 +22°C° 0 mm 1 mps 740 mmHg 71%
18:00 +21°C° 0 mm 1 mps 741 mmHg 74%
19:00 +20°C° 0 mm 1 mps 741 mmHg 77%
20:00 +19°C° 0 mm 1 mps 741 mmHg 80%
21:00 +19°C° 0 mm 1 mps 741 mmHg 81%
22:00 +18°C° 0 mm 1 mps 742 mmHg 81%
23:00 +18°C° 0 mm 1 mps 742 mmHg 81%
Show more